Location: Newark
(48.9886°N, 1.2358°E)
Time: 05:30:15
(UTC+00:00)

Transit 4A - Pass Details

Date: 23 November 2019
Orbit: 870 x 975 km, 66.8° (Epoch: 08 December)

Event Time Altitude Azimuth Distance (km) Brightness Sun altitude
Exits shadow 05:56:00 13° 317° (NW) 2,383 9.5 -12.8°
Maximum altitude 06:01:16 57° 242° (WSW) 1,029 7.9 -12.0°
Drops below altitude 10° 06:06:56 10° 165° (SSE) 2,511 10.6 -11.1°
Sets 06:09:25 0° 161° (SSE) 3,443 11.5 -10.7°
